Theta_e
283 283 282 282 282 282 282 282 281 281 281 281 280 280 280 280 279 279 279 280 279 279 279 279 279 279 278 278 278 278 278 279
284 284 283 282 281 281 281 281 281 281 280 280 279 279 279 279 279 279 279 279 279 278 278 278 277 278 277 277 278 277 277 278
285 284 282 282 281 280 281 281 281 280 280 280 279 279 279 279 279 279 278 278 278 277 277 276 276 276 276 276 276 276 276 277
284 283 283 281 281 280 280 280 280 279 279 279 279 278 278 278 278 278 277 277 276 276 275 275 275 275 275 276 275 275 275 275
282 283 282 282 281 280 280 280 280 279 279 278 278 278 278 278 277 276 276 275 274 274 274 273 273 274 275 275 275 275 275 275
283 282 281 281 281 280 280 280 280 279 278 278 279 278 277 276 275 274 274 273 273 272 272 272 272 274 275 275 275 274 273 273
283 282 281 281 281 280 280 279 279 279 279 278 278 276 275 274 274 273 272 271 271 270 270 269 271 273 276 276 274 273 272 271
283 281 281 280 281 279 279 278 278 277 275 275 275 275 273 272 271 271 270 269 269 269 268 268 268 273 275 275 273 272 271 270
282 281 280 280 279 278 278 277 277 276 275 273 273 272 270 269 269 268 268 268 267 267 267 267 268 272 273 274 272 271 270 270
280 280 278 278 278 277 276 276 275 275 274 273 271 269 268 266 267 267 266 266 265 267 265 265 265 269 272 273 271 270 269 270
279 278 277 277 277 275 275 274 274 274 274 271 269 266 265 266 265 265 264 266 265 265 264 263 263 267 270 272 271 269 270 271
278 278 278 276 274 274 273 273 273 271 270 268 267 265 265 263 264 262 262 263 260 262 262 262 263 264 270 272 271 271 270 271
277 277 277 275 274 273 272 271 270 268 267 265 263 265 263 259 260 259 259 259 259 259 261 263 264 267 269 272 274 275 272 271
277 276 276 273 272 272 271 269 266 265 263 261 261 262 261 258 260 261 259 259 259 261 261 262 265 265 269 272 273 274 273 273
272 272 273 270 271 271 268 267 263 261 262 261 260 261 260 262 262 260 259 260 260 259 260 261 263 265 268 269 270 273 273 274
273 274 274 269 268 266 266 264 262 261 262 262 261 260 262 262 262 262 262 261 257 258 260 261 263 267 272 273 272 273 273 269
271 270 270 267 265 262 262 262 262 261 261 261 261 260 261 261 261 264 267 269 271 272 271 270 272 272 273 274 274 274 271 261
271 269 264 263 263 260 259 259 259 260 261 261 261 260 259 259 259 258 261 265 267 268 270 271 270 272 272 273 273 268 266 257
263 260 261 260 259 258 256 256 255 254 259 258 258 258 258 257 257 257 256 254 256 261 264 266 269 269 270 270 265 257 257 255
258 255 257 256 255 253 254 255 253 255 256 256 256 256 256 257 256 256 255 255 254 255 259 260 264 267 267 265 256 254 255 256
Wind_Speed
9 9 7 6 6 6 6 7 6 6 6 6 7 7 7 6 7 7 6 5 6 8 8 9 9 9 8 7 6 7 6 6
10 8 7 6 6 7 7 7 7 6 6 7 6 6 6 6 5 5 5 5 6 6 6 6 7 7 7 7 7 8 9 8
10 8 8 8 8 9 8 8 8 7 6 6 6 6 6 5 5 4 4 3 3 4 4 4 5 5 6 6 6 8 9 10
7 10 11 10 10 10 9 9 8 7 7 6 6 5 5 5 4 3 3 3 2 1 2 4 4 6 5 5 8 9 9 9
6 9 9 10 10 10 9 8 8 8 7 7 7 6 5 5 4 4 3 3 2 1 2 3 5 5 5 8 9 9 9 10
9 8 7 9 9 9 9 9 8 8 8 9 7 6 6 5 4 3 3 3 1 1 2 3 5 4 9 9 10 11 12 11
6 7 9 11 11 10 10 10 9 10 11 8 7 6 6 5 4 3 4 3 2 1 2 4 4 11 13 13 11 11 12 12
8 7 7 9 9 11 10 7 9 8 6 7 7 7 6 4 4 4 2 1 2 2 4 4 5 12 15 16 10 11 11 12
5 5 6 4 7 6 7 7 8 8 7 7 7 6 5 4 4 2 0 2 2 3 4 5 6 14 16 16 10 10 11 12
6 4 4 6 6 6 6 6 6 9 9 9 8 6 5 4 3 2 1 2 1 3 3 6 8 14 16 15 10 11 12 12
7 5 6 6 6 6 6 6 9 8 8 8 7 6 5 4 4 2 3 2 2 4 5 6 8 14 15 14 8 10 10 12
7 8 9 7 7 7 6 10 5 7 7 7 6 6 4 4 3 3 2 2 3 5 5 6 8 9 15 15 9 9 10 9
7 8 7 7 7 6 8 5 7 7 7 7 6 4 4 4 3 3 0 2 4 4 5 4 6 11 13 17 18 18 11 11
8 8 6 6 7 7 5 8 8 7 6 6 5 5 5 4 4 2 1 1 4 4 6 6 6 6 15 18 20 20 13 11
6 7 8 7 8 6 8 8 8 7 7 6 5 5 4 3 3 2 2 3 4 4 6 7 7 7 6 8 9 12 13 13
9 9 11 6 7 7 8 10 8 6 5 5 4 4 3 3 3 3 4 4 3 5 6 6 6 6 15 15 9 9 10 11
7 6 7 7 7 6 6 8 8 6 5 5 5 4 4 3 3 7 10 12 15 17 14 7 13 19 20 20 20 19 19 3
9 7 5 6 6 6 6 7 7 6 6 4 4 4 3 3 3 4 4 9 12 12 14 15 16 17 17 19 18 16 12 2
3 4 5 6 5 6 6 5 4 3 5 4 4 4 3 3 3 3 4 2 5 6 10 14 14 14 16 15 11 5 5 3
5 5 5 5 3 3 5 6 6 5 4 3 3 3 4 3 4 4 4 4 4 5 7 6 13 14 10 10 1 3 5 5
Wind_Direction
195 192 183 183 163 164 160 157 155 135 125 123 118 114 117 113 100 90 86 71 56 40 33 27 21 14 7 359 353 349 347 335
194 189 181 176 165 177 173 168 161 149 143 139 133 115 99 91 86 79 73 54 48 37 24 17 6 358 348 340 328 328 322 325
190 174 180 183 182 187 185 177 177 164 152 142 135 127 114 114 113 107 97 76 57 31 16 4 346 331 322 315 312 312 319 319
172 190 193 188 190 194 188 190 174 164 157 156 158 155 156 151 141 129 121 109 67 34 355 342 332 322 312 309 320 317 312 309
191 205 194 192 195 196 196 190 176 171 168 178 183 181 173 164 161 164 161 149 156 153 345 339 329 315 329 323 317 312 311 307
204 203 195 198 200 199 200 189 178 176 187 197 183 171 163 168 175 176 165 151 145 84 360 345 327 336 327 322 319 314 312 309
209 197 204 206 207 200 199 196 174 191 204 185 172 158 169 172 182 189 193 167 127 41 359 343 334 325 325 327 318 314 309 309
201 203 205 204 199 201 197 168 187 197 182 176 168 174 174 174 190 206 203 71 31 7 350 336 323 321 325 322 312 308 308 306
203 205 213 193 193 164 159 176 188 199 183 172 170 171 164 184 203 201 117 332 350 337 332 326 317 321 319 317 313 304 299 300
194 179 183 194 187 173 173 177 181 202 194 183 167 166 174 194 200 202 245 289 330 318 320 312 304 312 317 320 312 301 297 295
185 170 179 197 165 163 194 181 208 200 187 154 153 167 179 188 198 178 238 276 319 311 303 292 291 305 313 316 300 297 295 288
173 186 203 170 157 189 172 214 191 146 141 141 154 165 164 174 184 204 259 336 314 298 289 274 280 290 312 308 300 287 286 286
190 214 209 171 166 189 209 161 148 145 146 151 155 175 162 176 199 221 246 315 310 299 301 275 279 289 299 303 299 305 302 293
202 221 209 183 185 196 203 153 148 144 154 161 165 176 173 189 211 229 199 302 302 305 307 306 297 283 289 296 301 303 301 294
178 222 241 198 200 203 156 150 147 160 171 171 179 185 194 203 209 218 257 274 280 291 287 285 287 280 272 281 277 282 297 303
202 217 235 171 192 173 160 152 163 168 172 179 181 191 207 231 234 246 237 221 226 237 245 267 265 274 291 309 308 305 333 348
223 220 226 186 180 166 151 155 153 168 177 188 188 193 201 219 254 259 270 278 283 287 286 274 284 306 302 309 311 330 337 19
222 220 158 166 167 161 160 156 167 176 183 182 185 191 192 214 233 272 297 300 295 295 293 296 297 298 306 305 318 352 346 312
161 149 157 159 171 151 143 145 152 158 180 183 189 188 184 198 219 241 258 263 302 302 300 291 290 303 301 322 354 338 326 287
108 100 120 141 155 144 148 160 171 178 196 188 200 207 208 202 211 231 234 246 243 289 301 294 302 299 316 330 280 290 295 300